Radiation Dose at Monitoring Post of Fukushima Daini Nuclear Power Station
Date,Time,MP-1(microSv/h),MP-2(microSv/h),MP-3(microSv/h),MP-4(microSv/h),MP-5(microSv/h),MP-6(microSv/h),MP-7(microSv/h),Wind Direction,Wind Velocity(m/s),Rain
2020/01/02,00:00,0.182,0.165,0.278,0.258,0.253,0.141,0.087,west-southwest,2.4,No
2020/01/02,00:10,0.182,0.163,0.278,0.259,0.254,0.142,0.086,west-southwest,0.9,No
2020/01/02,00:20,0.184,0.164,0.277,0.259,0.254,0.140,0.087,west,0.6,No
2020/01/02,00:30,0.182,0.164,0.277,0.258,0.252,0.141,0.087,northwest,1.5,No
2020/01/02,00:40,0.183,0.165,0.277,0.257,0.252,0.141,0.086,west,1.6,No
2020/01/02,00:50,0.183,0.165,0.278,0.257,0.254,0.140,0.087,west-southwest,1.6,No
2020/01/02,01:00,0.183,0.165,0.277,0.258,0.253,0.141,0.086,west-southwest,1.6,No
2020/01/02,01:10,0.183,0.164,0.277,0.257,0.253,0.141,0.087,west-northwest,2.3,No
2020/01/02,01:20,0.182,0.164,0.279,0.258,0.254,0.141,0.087,west,2.9,No
2020/01/02,01:30,0.182,0.164,0.276,0.258,0.253,0.140,0.086,west-southwest,1.6,No
2020/01/02,01:40,0.183,0.164,0.278,0.258,0.253,0.141,0.087,west-southwest,2.1,No
2020/01/02,01:50,0.184,0.165,0.278,0.257,0.255,0.140,0.087,west-southwest,1.1,No
2020/01/02,02:00,0.183,0.165,0.277,0.257,0.253,0.141,0.087,west-northwest,1.1,No
2020/01/02,02:10,0.182,0.164,0.277,0.258,0.254,0.141,0.086,west,2.0,No
2020/01/02,02:20,0.183,0.165,0.277,0.259,0.255,0.140,0.086,west-northwest,1.7,No
2020/01/02,02:30,0.184,0.164,0.278,0.257,0.254,0.141,0.087,northwest,2.5,No
2020/01/02,02:40,0.183,0.165,0.278,0.258,0.252,0.140,0.087,northwest,2.8,No
2020/01/02,02:50,0.183,0.164,0.278,0.258,0.254,0.140,0.087,west-northwest,2.8,No
2020/01/02,03:00,0.181,0.164,0.278,0.258,0.253,0.141,0.087,west-northwest,1.9,No
2020/01/02,03:10,0.183,0.164,0.278,0.257,0.253,0.141,0.086,west-northwest,1.5,No
2020/01/02,03:20,0.183,0.164,0.278,0.258,0.253,0.141,0.086,west,2.1,No
2020/01/02,03:30,0.184,0.165,0.278,0.258,0.254,0.141,0.086,northwest,1.0,No
2020/01/02,03:40,0.182,0.165,0.277,0.258,0.253,0.142,0.086,northeast,1.0,No
2020/01/02,03:50,0.182,0.165,0.278,0.258,0.254,0.140,0.087,north,0.9,No
2020/01/02,04:00,0.183,0.164,0.279,0.259,0.254,0.140,0.087,northwest,1.1,No
2020/01/02,04:10,0.183,0.165,0.278,0.257,0.254,0.141,0.086,north-northwest,1.5,No
2020/01/02,04:20,0.182,0.164,0.278,0.258,0.253,0.141,0.087,north-northwest,1.1,No
2020/01/02,04:30,0.182,0.164,0.277,0.258,0.253,0.140,0.087,north-northeast,1.2,No
2020/01/02,04:40,0.182,0.164,0.278,0.257,0.253,0.141,0.087,north,1.3,No
2020/01/02,04:50,0.181,0.164,0.278,0.258,0.254,0.140,0.086,northwest,1.8,No
2020/01/02,05:00,0.183,0.164,0.277,0.258,0.253,0.140,0.086,north-northeast,1.1,No
2020/01/02,05:10,0.182,0.165,0.277,0.257,0.253,0.141,0.086,north,1.5,No
2020/01/02,05:20,0.182,0.164,0.277,0.257,0.253,0.141,0.086,northwest,1.1,No
2020/01/02,05:30,0.183,0.164,0.278,0.257,0.252,0.141,0.086,north-northwest,1.6,No
2020/01/02,05:40,0.182,0.164,0.277,0.257,0.253,0.141,0.086,north-northwest,2.0,No
2020/01/02,05:50,0.182,0.165,0.278,0.258,0.254,0.141,0.086,north,1.7,No
2020/01/02,06:00,0.182,0.164,0.277,0.256,0.254,0.141,0.087,north-northeast,2.6,No
2020/01/02,06:10,0.182,0.164,0.278,0.257,0.253,0.141,0.087,north,2.6,No
2020/01/02,06:20,0.183,0.164,0.277,0.258,0.253,0.141,0.086,north,2.2,No
2020/01/02,06:30,0.183,0.164,0.277,0.257,0.253,0.140,0.086,north,2.3,No
2020/01/02,06:40,0.182,0.164,0.278,0.258,0.253,0.141,0.087,north,2.4,No
2020/01/02,06:50,0.183,0.164,0.278,0.258,0.253,0.140,0.086,north,2.8,No
2020/01/02,07:00,0.183,0.164,0.277,0.258,0.253,0.141,0.086,northwest,1.6,No
2020/01/02,07:10,0.183,0.164,0.277,0.257,0.252,0.140,0.087,west,1.9,No
2020/01/02,07:20,0.184,0.164,0.277,0.257,0.253,0.140,0.087,southwest,1.0,No
2020/01/02,07:30,0.183,0.163,0.277,0.256,0.252,0.141,0.086,south,1.0,No
2020/01/02,07:40,0.183,0.164,0.277,0.258,0.252,0.141,0.087,south,0.6,No
2020/01/02,07:50,0.182,0.165,0.278,0.257,0.253,0.141,0.086,south,0.6,No
2020/01/02,08:00,0.182,0.164,0.276,0.257,0.253,0.141,0.087,south-southeast,0.8,No
2020/01/02,08:10,0.183,0.163,0.277,0.257,0.253,0.140,0.086,east,1.6,No
2020/01/02,08:20,0.182,0.165,0.277,0.257,0.253,0.140,0.085,east-southeast,3.1,No
2020/01/02,08:30,0.183,0.165,0.276,0.256,0.252,0.140,0.086,southeast,2.9,No
2020/01/02,08:40,0.183,0.164,0.277,0.257,0.255,0.140,0.086,south-southeast,2.6,No
2020/01/02,08:50,0.183,0.165,0.278,0.257,0.252,0.141,0.086,east-southeast,2.5,No
2020/01/02,09:00,0.183,0.164,0.278,0.256,0.254,0.141,0.087,east-northeast,2.8,No
2020/01/02,09:10,0.182,0.163,0.278,0.256,0.253,0.141,0.087,northeast,2.1,No
2020/01/02,09:20,0.183,0.164,0.276,0.257,0.253,0.140,0.087,east,1.9,No
2020/01/02,09:30,0.182,0.165,0.276,0.256,0.252,0.140,0.087,east-northeast,2.4,No
2020/01/02,09:40,0.182,0.164,0.275,0.256,0.254,0.141,0.087,east-northeast,2.2,No
2020/01/02,09:50,0.182,0.163,0.277,0.256,0.252,0.141,0.087,east-northeast,2.4,No
2020/01/02,10:00,0.183,0.163,0.277,0.256,0.252,0.141,0.087,east-northeast,2.5,No
2020/01/02,10:10,0.182,0.163,0.277,0.256,0.252,0.140,0.086,northeast,2.1,No
2020/01/02,10:20,0.182,0.163,0.277,0.257,0.253,0.140,0.087,east-northeast,1.8,No
2020/01/02,10:30,0.183,0.163,0.277,0.257,0.253,0.141,0.086,-,CALM,No
2020/01/02,10:40,0.182,0.164,0.276,0.259,0.254,0.140,0.086,northeast,2.0,No
2020/01/02,10:50,0.181,0.162,0.277,0.256,0.252,0.141,0.086,northeast,2.9,No
2020/01/02,11:00,0.184,0.164,0.277,0.256,0.252,0.140,0.086,north-northeast,2.3,No
2020/01/02,11:10,0.182,0.163,0.277,0.257,0.252,0.140,0.087,northeast,1.6,No
2020/01/02,11:20,0.181,0.163,0.276,0.255,0.252,0.140,0.086,east-northeast,1.5,No
2020/01/02,11:30,0.182,0.164,0.276,0.258,0.254,0.140,0.086,east-northeast,1.5,No
2020/01/02,11:40,0.180,0.164,0.277,0.256,0.252,0.141,0.086,-,CALM,No
2020/01/02,11:50,0.182,0.164,0.276,0.257,0.252,0.140,0.086,north-northeast,1.8,No
2020/01/02,12:00,0.181,0.164,0.276,0.256,0.252,0.141,0.087,east-northeast,0.7,No
2020/01/02,12:10,0.181,0.163,0.276,0.257,0.254,0.141,0.086,-,CALM,No
2020/01/02,12:20,0.181,0.163,0.275,0.257,0.253,0.140,0.086,west-northwest,5.2,No
2020/01/02,12:30,0.183,0.163,0.276,0.255,0.253,0.141,0.086,west-northwest,4.8,No
2020/01/02,12:40,0.181,0.163,0.276,0.257,0.254,0.140,0.086,west,7.6,No
2020/01/02,12:50,0.181,0.164,0.276,0.257,0.252,0.140,0.086,west-northwest,3.6,No
2020/01/02,13:00,0.183,0.163,0.278,0.257,0.254,0.141,0.086,west,5.1,No
2020/01/02,13:10,0.181,0.164,0.277,0.255,0.252,0.141,0.086,west,5.6,No
2020/01/02,13:20,0.181,0.163,0.276,0.258,0.254,0.139,0.086,west-northwest,6.6,No
2020/01/02,13:30,0.181,0.163,0.276,0.256,0.255,0.140,0.086,west,9.2,No
2020/01/02,13:40,0.182,0.165,0.276,0.257,0.254,0.141,0.085,west-northwest,6.6,No
2020/01/02,13:50,0.182,0.163,0.277,0.255,0.254,0.140,0.086,west,7.3,No
2020/01/02,14:00,0.182,0.165,0.277,0.257,0.255,0.141,0.086,west,7.4,No
2020/01/02,14:10,0.182,0.164,0.276,0.256,0.252,0.138,0.086,west,7.3,No
2020/01/02,14:20,0.182,0.163,0.278,0.257,0.253,0.140,0.087,west,7.4,No
2020/01/02,14:30,0.184,0.165,0.278,0.256,0.251,0.140,0.086,northwest,4.9,No
2020/01/02,14:40,0.182,0.163,0.276,0.257,0.253,0.140,0.086,north-northwest,7.5,No
2020/01/02,14:50,0.182,0.164,0.275,0.258,0.253,0.139,0.086,north-northwest,4.9,No
2020/01/02,15:00,0.182,0.164,0.276,0.257,0.253,0.140,0.086,northwest,3.6,No
2020/01/02,15:10,0.183,0.163,0.278,0.258,0.255,0.139,0.086,north-northwest,4.9,No
2020/01/02,15:20,0.183,0.165,0.277,0.258,0.253,0.139,0.086,north-northwest,4.8,No
2020/01/02,15:30,0.182,0.164,0.276,0.257,0.253,0.139,0.086,north-northwest,4.3,No
2020/01/02,15:40,0.183,0.164,0.278,0.258,0.254,0.140,0.086,northwest,4.8,No
2020/01/02,15:50,0.182,0.164,0.276,0.258,0.253,0.140,0.086,west-northwest,3.2,No
2020/01/02,16:00,0.182,0.165,0.276,0.258,0.253,0.141,0.086,northwest,3.3,No
2020/01/02,16:10,0.182,0.164,0.278,0.258,0.255,0.141,0.086,west-northwest,4.2,No
2020/01/02,16:20,0.183,0.165,0.278,0.258,0.253,0.140,0.086,west-northwest,3.7,No
2020/01/02,16:30,0.183,0.165,0.278,0.257,0.254,0.140,0.086,west-northwest,3.2,No
2020/01/02,16:40,0.183,0.165,0.277,0.257,0.254,0.141,0.086,west-northwest,4.0,No
2020/01/02,16:50,0.183,0.165,0.277,0.258,0.253,0.141,0.086,southwest,1.5,No
2020/01/02,17:00,0.182,0.163,0.276,0.258,0.253,0.141,0.087,west,3.0,No
2020/01/02,17:10,0.182,0.165,0.276,0.257,0.252,0.140,0.086,west-southwest,2.0,No
2020/01/02,17:20,0.182,0.165,0.278,0.257,0.254,0.141,0.087,west,4.6,No
2020/01/02,17:30,0.183,0.164,0.278,0.258,0.254,0.140,0.086,west,2.1,No
2020/01/02,17:40,0.183,0.163,0.276,0.258,0.254,0.140,0.086,west-southwest,3.0,No
2020/01/02,17:50,0.182,0.163,0.277,0.258,0.254,0.140,0.086,west-southwest,3.1,No
2020/01/02,18:00,0.182,0.165,0.277,0.258,0.254,0.141,0.087,west-southwest,3.2,No
2020/01/02,18:10,0.183,0.164,0.277,0.259,0.254,0.141,0.086,west-northwest,1.2,No
2020/01/02,18:20,0.182,0.163,0.277,0.259,0.253,0.141,0.086,north-northeast,1.8,No
2020/01/02,18:30,0.183,0.164,0.277,0.257,0.254,0.141,0.087,north-northwest,3.5,No
2020/01/02,18:40,0.183,0.164,0.277,0.257,0.254,0.141,0.087,north,5.6,No
2020/01/02,18:50,0.182,0.165,0.278,0.258,0.254,0.141,0.086,north,5.9,No
2020/01/02,19:00,0.183,0.166,0.278,0.259,0.253,0.141,0.086,north,5.0,No
2020/01/02,19:10,0.182,0.164,0.277,0.259,0.254,0.141,0.087,north,4.9,No
2020/01/02,19:20,0.183,0.164,0.277,0.258,0.253,0.140,0.087,north-northeast,5.0,No
2020/01/02,19:30,0.182,0.165,0.277,0.257,0.254,0.141,0.087,north-northwest,2.9,No
2020/01/02,19:40,0.181,0.165,0.278,0.258,0.255,0.141,0.086,north,3.6,No
2020/01/02,19:50,0.182,0.165,0.278,0.258,0.254,0.141,0.086,north,4.1,No
2020/01/02,20:00,0.182,0.164,0.277,0.258,0.253,0.142,0.086,north,4.0,No
2020/01/02,20:10,0.182,0.164,0.277,0.258,0.253,0.140,0.087,north,3.5,No
2020/01/02,20:20,0.183,0.165,0.279,0.259,0.253,0.140,0.086,north-northwest,3.5,No
2020/01/02,20:30,0.183,0.165,0.278,0.257,0.254,0.141,0.086,north,2.7,No
2020/01/02,20:40,0.184,0.165,0.278,0.258,0.254,0.140,0.086,west-northwest,1.7,No
2020/01/02,20:50,0.183,0.164,0.279,0.259,0.253,0.141,0.086,northwest,1.3,No
2020/01/02,21:00,0.182,0.165,0.277,0.258,0.253,0.141,0.087,-,CALM,No
2020/01/02,21:10,0.183,0.164,0.277,0.258,0.254,0.141,0.087,-,CALM,No
2020/01/02,21:20,0.183,0.164,0.278,0.258,0.254,0.140,0.087,south-southeast,0.7,No
2020/01/02,21:30,0.184,0.165,0.278,0.257,0.254,0.142,0.087,east-northeast,0.6,No
2020/01/02,21:40,0.183,0.164,0.278,0.257,0.254,0.141,0.086,east,1.0,No
2020/01/02,21:50,0.182,0.164,0.278,0.258,0.252,0.141,0.086,northeast,1.6,No
2020/01/02,22:00,0.182,0.164,0.278,0.258,0.253,0.141,0.087,northeast,0.8,No
2020/01/02,22:10,0.182,0.164,0.279,0.258,0.253,0.140,0.087,north-northeast,1.6,No
2020/01/02,22:20,0.183,0.164,0.278,0.258,0.254,0.140,0.087,northeast,2.1,No
2020/01/02,22:30,0.183,0.164,0.279,0.259,0.253,0.141,0.086,north-northeast,2.4,No
2020/01/02,22:40,0.183,0.164,0.278,0.258,0.254,0.141,0.086,north-northwest,3.5,No
2020/01/02,22:50,0.183,0.165,0.277,0.258,0.254,0.141,0.086,north-northwest,3.1,No
2020/01/02,23:00,0.182,0.164,0.278,0.259,0.254,0.141,0.087,north-northwest,2.9,No
2020/01/02,23:10,0.182,0.165,0.278,0.258,0.254,0.140,0.086,north-northwest,2.6,No
2020/01/02,23:20,0.183,0.165,0.277,0.258,0.254,0.141,0.087,north-northwest,4.0,No
2020/01/02,23:30,0.183,0.164,0.278,0.259,0.253,0.141,0.086,northwest,2.7,No
2020/01/02,23:40,0.182,0.163,0.278,0.259,0.253,0.141,0.087,northwest,2.1,No
2020/01/02,23:50,0.182,0.165,0.278,0.259,0.253,0.142,0.086,west-northwest,1.6,No
